| time (UTC) | temp C | wind direction | speed KPH | gust KPH | rain 1hr cm | rain 24hr cm | rain mn cm | humidity % | barometer mb |
| 20260502224526 | 16 | 276 | 12.9 | 25.7 | 0.00 | 0.00 | 0.00 | 34 | 1008.5 |
| 20260502224010 | 16 | 236 | 12.9 | 25.7 | 0.00 | 0.00 | 0.00 | 33 | 1008.6 |
| 20260502223508 | 16 | 281 | 16.1 | 24.1 | 0.00 | 0.00 | 0.00 | 33 | 1008.6 |
| 20260502223028 | 16 | 227 | 11.3 | 24.1 | 0.00 | 0.00 | 0.00 | 34 | 1008.6 |
| 20260502222508 | 17 | 246 | 8.0 | 19.3 | 0.00 | 0.00 | 0.00 | 32 | 1008.7 |
| 20260502222008 | 17 | 213 | 8.0 | 19.3 | 0.00 | 0.00 | 0.00 | 34 | 1008.7 |
| 20260502221527 | 17 | 278 | 6.4 | 19.3 | 0.00 | 0.00 | 0.00 | 32 | 1008.6 |
| 20260502221007 | 17 | 267 | 9.7 | 19.3 | 0.00 | 0.00 | 0.00 | 32 | 1008.6 |
| 20260502220508 | 17 | 242 | 8.0 | 16.1 | 0.00 | 0.00 | 0.00 | 32 | 1008.5 |
| 20260502220028 | 17 | 242 | 6.4 | 19.3 | 0.00 | 0.00 | 0.00 | 34 | 1008.6 |
| 20260502215508 | 17 | 269 | 11.3 | 19.3 | 0.00 | 0.00 | 0.00 | 32 | 1008.8 |
| 20260502215007 | 17 | 236 | 8.0 | 16.1 | 0.00 | 0.00 | 0.00 | 33 | 1009.0 |
| 20260502214507 | 17 | 243 | 8.0 | 17.7 | 0.00 | 0.00 | 0.00 | 32 | 1009.0 |
| 20260502214002 | 17 | 212 | 9.7 | 27.4 | 0.00 | 0.00 | 0.00 | 33 | 1009.1 |
| 20260502213503 | 17 | 219 | 16.1 | 25.7 | 0.00 | 0.00 | 0.00 | 32 | 1009.1 |
| 20260502213010 | 17 | 228 | 3.2 | 20.9 | 0.00 | 0.00 | 0.00 | 34 | 1009.1 |
| 20260502212505 | 17 | 232 | 11.3 | 22.5 | 0.00 | 0.00 | 0.00 | 31 | 1009.2 |
| 20260502212003 | 17 | 305 | 12.9 | 25.7 | 0.00 | 0.00 | 0.00 | 31 | 1009.2 |
| 20260502211510 | 17 | 277 | 11.3 | 25.7 | 0.00 | 0.00 | 0.00 | 30 | 1009.4 |
| 20260502211004 | 18 | 268 | 11.3 | 22.5 | 0.00 | 0.00 | 0.00 | 31 | 1009.5 |
| 20260502210503 | 18 | 275 | 9.7 | 19.3 | 0.00 | 0.00 | 0.00 | 31 | 1009.6 |
| 20260502210013 | 18 | 249 | 9.7 | 19.3 | 0.00 | 0.00 | 0.00 | 30 | 1009.6 |
| 20260502205503 | 18 | 236 | 9.7 | 16.1 | 0.00 | 0.00 | 0.00 | 29 | 1009.7 |
| 20260502205004 | 17 | 281 | 1.6 | 14.5 | 0.00 | 0.00 | 0.00 | 32 | 1009.7 |
| 20260502204520 | 17 | 195 | 6.4 | 17.7 | 0.00 | 0.00 | 0.00 | 31 | 1009.6 |
| 20260502204003 | 17 | 243 | 8.0 | 17.7 | 0.00 | 0.00 | 0.00 | 30 | 1009.7 |
| 20260502203504 | 18 | 272 | 6.4 | 24.1 | 0.00 | 0.00 | 0.00 | 29 | 1009.8 |
| 20260502203017 | 18 | 225 | 8.0 | 25.7 | 0.00 | 0.00 | 0.00 | 30 | 1009.9 |
| 20260502202503 | 18 | 223 | 14.5 | 25.7 | 0.00 | 0.00 | 0.00 | 28 | 1009.9 |
| 20260502202006 | 18 | 214 | 6.4 | 24.1 | 0.00 | 0.00 | 0.00 | 31 | 1010.0 |
| 20260502201517 | 18 | 230 | 6.4 | 20.9 | 0.00 | 0.00 | 0.00 | 31 | 1010.3 |
| 20260502201003 | 17 | 217 | 6.4 | 25.7 | 0.00 | 0.00 | 0.00 | 33 | 1010.2 |
| 20260502200505 | 17 | 248 | 11.3 | 25.7 | 0.00 | 0.00 | 0.00 | 31 | 1010.5 |
| 20260502200018 | 17 | 286 | 11.3 | 24.1 | 0.00 | 0.00 | 0.00 | 31 | 1010.4 |
| 20260502195505 | 17 | 160 | 6.4 | 24.1 | 0.00 | 0.00 | 0.00 | 32 | 1010.5 |
| 20260502195009 | 17 | 269 | 11.3 | 24.1 | 0.00 | 0.00 | 0.00 | 31 | 1010.6 |
| 20260502194516 | 17 | 152 | 14.5 | 25.7 | 0.00 | 0.00 | 0.00 | 30 | 1010.7 |
| 20260502194001 | 17 | 271 | 12.9 | 25.7 | 0.00 | 0.00 | 0.00 | 30 | 1010.7 |
| 20260502193507 | 17 | 193 | 6.4 | 24.1 | 0.00 | 0.00 | 0.00 | 30 | 1010.7 |
| 20260502193003 | 17 | 194 | 1.6 | 25.7 | 0.00 | 0.00 | 0.00 | 31 | 1010.8 |
| 20260502192506 | 17 | 213 | 11.3 | 25.7 | 0.00 | 0.00 | 0.00 | 29 | 1011.0 |
| 20260502192010 | 18 | 232 | 8.0 | 24.1 | 0.00 | 0.00 | 0.00 | 30 | 1011.0 |
| 20260502191511 | 17 | 192 | 12.9 | 24.1 | 0.00 | 0.00 | 0.00 | 31 | 1011.2 |
| 20260502191004 | 17 | 239 | 6.4 | 22.5 | 0.00 | 0.00 | 0.00 | 34 | 1011.3 |
| 20260502190509 | 16 | 184 | 11.3 | 22.5 | 0.00 | 0.00 | 0.00 | 31 | 1011.4 |
| 20260502190006 | 16 | 235 | 9.7 | 22.5 | 0.00 | 0.00 | 0.00 | 32 | 1011.4 |
| 20260502185507 | 16 | 184 | 3.2 | 27.4 | 0.00 | 0.00 | 0.00 | 32 | 1011.6 |
| 20260502185007 | 16 | 242 | 6.4 | 27.4 | 0.00 | 0.00 | 0.00 | 31 | 1011.7 |
| 20260502184505 | 17 | 236 | 11.3 | 22.5 | 0.00 | 0.00 | 0.00 | 31 | 1011.7 |
| 20260502184004 | 16 | 184 | 9.7 | 20.9 | 0.00 | 0.00 | 0.00 | 33 | 1011.9 |
| 20260502183507 | 16 | 245 | 8.0 | 20.9 | 0.00 | 0.00 | 0.00 | 31 | 1011.9 |
| 20260502183005 | 16 | 239 | 6.4 | 19.3 | 0.00 | 0.00 | 0.00 | 31 | 1012.1 |
| 20260502182504 | 16 | 195 | 8.0 | 19.3 | 0.00 | 0.00 | 0.00 | 31 | 1012.1 |
| 20260502182010 | 16 | 186 | 9.7 | 19.3 | 0.00 | 0.00 | 0.00 | 31 | 1012.2 |
| 20260502181504 | 16 | 230 | 6.4 | 12.9 | 0.00 | 0.00 | 0.00 | 30 | 1012.3 |
| 20260502181006 | 16 | 202 | 8.0 | 14.5 | 0.00 | 0.00 | 0.00 | 32 | 1012.4 |
| 20260502180506 | 16 | 155 | 4.8 | 22.5 | 0.00 | 0.00 | 0.00 | 31 | 1012.5 |
| 20260502170514 | 15 | 170 | 9.7 | 22.5 | 0.00 | 0.00 | 0.00 | 32 | 1013.5 |
| 20260502164011 | 14 | 235 | 6.4 | 16.1 | 0.00 | 0.00 | 0.00 | 33 | 1014.1 |
| 20260502163511 | 13 | 174 | 8.0 | 16.1 | 0.00 | 0.00 | 0.00 | 33 | 1014.1 |
| 20260502163013 | 13 | 173 | 4.8 | 12.9 | 0.00 | 0.00 | 0.00 | 33 | 1014.2 |
| 20260502162512 | 13 | 194 | 8.0 | 22.5 | 0.00 | 0.00 | 0.00 | 33 | 1014.4 |
| 20260502162011 | 13 | 166 | 4.8 | 22.5 | 0.00 | 0.00 | 0.00 | 34 | 1014.4 |
| 20260502161508 | 13 | 225 | 4.8 | 16.1 | 0.00 | 0.00 | 0.00 | 32 | 1014.4 |
| 20260502161010 | 13 | 188 | 6.4 | 16.1 | 0.00 | 0.00 | 0.00 | 34 | 1014.4 |
| 20260502160502 | 13 | 159 | 4.8 | 12.9 | 0.00 | 0.00 | 0.00 | 34 | 1014.6 |
| 20260502152004 | 11 | 200 | 8.0 | 16.1 | 0.00 | 0.00 | 0.00 | 36 | 1015.5 |
| 20260502151522 | 11 | 225 | 6.4 | 16.1 | 0.00 | 0.00 | 0.00 | 37 | 1015.5 |
| 20260502151011 | 11 | 182 | 4.8 | 12.9 | 0.00 | 0.00 | 0.00 | 38 | 1015.6 |
| 20260502150504 | 11 | 236 | 6.4 | 19.3 | 0.00 | 0.00 | 0.00 | 37 | 1015.7 |
| 20260502130509 | 2 | 236 | 3.2 | 6.4 | 0.00 | 0.00 | 0.00 | 65 | 1016.5 |
| 20260502123503 | 0 | 24 | 0.0 | 0.0 | 0.00 | 0.00 | 0.00 | 80 | 1016.7 |
| 20260502123004 | 0 | 24 | 0.0 | 0.0 | 0.00 | 0.00 | 0.00 | 81 | 1016.7 |
| 20260502122504 | -1 | 24 | 0.0 | 0.0 | 0.00 | 0.00 | 0.00 | 82 | 1016.7 |
| 20260502122003 | -1 | 24 | 0.0 | 0.0 | 0.00 | 0.00 | 0.00 | 83 | 1016.6 |
| 20260502121506 | -2 | 24 | 0.0 | 0.0 | 0.00 | 0.00 | 0.00 | 85 | 1016.7 |
| 20260502121005 | -2 | 24 | 0.0 | 0.0 | 0.00 | 0.00 | 0.00 | 86 | 1016.6 |
| 20260502120503 | -2 | 24 | 0.0 | 0.0 | 0.00 | 0.00 | 0.00 | 86 | 1016.6 |
| 20260502115504 | -3 | 24 | 0.0 | 0.0 | 0.00 | 0.00 | 0.00 | 86 | 1016.7 |
| 20260502115002 | -3 | 24 | 0.0 | 0.0 | 0.00 | 0.00 | 0.00 | 86 | 1016.8 |
| 20260502114508 | -3 | 24 | 0.0 | 0.0 | 0.00 | 0.00 | 0.00 | 86 | 1016.9 |
| 20260502114004 | -3 | 24 | 0.0 | 0.0 | 0.00 | 0.00 | 0.00 | 86 | 1016.7 |
| 20260502113504 | -3 | 24 | 0.0 | 0.0 | 0.00 | 0.00 | 0.00 | 86 | 1016.7 |
| 20260502113005 | -3 | 24 | 0.0 | 0.0 | 0.00 | 0.00 | 0.00 | 86 | 1016.7 |
| 20260502112504 | -3 | 24 | 0.0 | 0.0 | 0.00 | 0.00 | 0.00 | 86 | 1016.8 |
| 20260502112003 | -3 | 24 | 0.0 | 0.0 | 0.00 | 0.00 | 0.00 | 86 | 1016.9 |
| 20260502111516 | -3 | 24 | 0.0 | 0.0 | 0.00 | 0.00 | 0.00 | 85 | 1016.7 |
| 20260502111004 | -3 | 24 | 0.0 | 0.0 | 0.00 | 0.00 | 0.00 | 85 | 1016.7 |
| 20260502110505 | -3 | 24 | 0.0 | 0.0 | 0.00 | 0.00 | 0.00 | 84 | 1016.7 |
| 20260502110008 | -3 | 24 | 0.0 | 0.0 | 0.00 | 0.00 | 0.00 | 84 | 1016.7 |
| 20260502105505 | -3 | 24 | 0.0 | 0.0 | 0.00 | 0.00 | 0.00 | 84 | 1016.7 |
| 20260502105004 | -3 | 24 | 0.0 | 0.0 | 0.00 | 0.00 | 0.00 | 83 | 1016.7 |
| 20260502104513 | -3 | 24 | 0.0 | 0.0 | 0.00 | 0.00 | 0.00 | 83 | 1016.7 |
| 20260502104007 | -3 | 24 | 0.0 | 0.0 | 0.00 | 0.00 | 0.00 | 83 | 1016.8 |
| 20260502103504 | -3 | 24 | 0.0 | 0.0 | 0.00 | 0.00 | 0.00 | 83 | 1016.9 |
| 20260502103010 | -3 | 24 | 0.0 | 0.0 | 0.00 | 0.00 | 0.00 | 82 | 1016.9 |
| 20260502102508 | -3 | 24 | 0.0 | 0.0 | 0.00 | 0.00 | 0.00 | 82 | 1016.9 |
| 20260502102004 | -3 | 24 | 0.0 | 0.0 | 0.00 | 0.00 | 0.00 | 82 | 1017.0 |
| 20260502101511 | -3 | 24 | 0.0 | 0.0 | 0.00 | 0.00 | 0.00 | 82 | 1017.1 |
| 20260502101011 | -3 | 24 | 0.0 | 0.0 | 0.00 | 0.00 | 0.00 | 82 | 1017.1 |
| 20260502100503 | -3 | 24 | 0.0 | 0.0 | 0.00 | 0.00 | 0.00 | 82 | 1017.1 |
| 20260502091516 | -3 | 24 | 0.0 | 0.0 | 0.00 | 0.00 | 0.00 | 81 | 1017.1 |
| 20260502091015 | -3 | 24 | 0.0 | 0.0 | 0.00 | 0.00 | 0.00 | 80 | 1017.1 |
| 20260502090504 | -3 | 24 | 0.0 | 0.0 | 0.00 | 0.00 | 0.00 | 80 | 1017.1 |
| 20260502071520 | -2 | 24 | 0.0 | 0.0 | 0.00 | 0.00 | 0.00 | 75 | 1017.5 |
| 20260502071004 | -2 | 24 | 0.0 | 0.0 | 0.00 | 0.00 | 0.00 | 75 | 1017.7 |
| 20260502070509 | -2 | 24 | 0.0 | 0.0 | 0.00 | 0.00 | 0.00 | 74 | 1017.7 |
| 20260502070021 | -2 | 24 | 0.0 | 0.0 | 0.00 | 0.00 | 0.00 | 74 | 1017.7 |
| 20260502065505 | -2 | 24 | 0.0 | 0.0 | 0.00 | 0.00 | 0.00 | 74 | 1017.8 |
| 20260502065004 | -2 | 24 | 0.0 | 0.0 | 0.00 | 0.00 | 0.00 | 74 | 1017.9 |
| 20260502064521 | -2 | 24 | 0.0 | 0.0 | 0.00 | 0.00 | 0.00 | 74 | 1017.9 |
| 20260502064011 | -2 | 24 | 0.0 | 0.0 | 0.00 | 0.00 | 0.00 | 74 | 1017.8 |
| 20260502063506 | -2 | 24 | 0.0 | 0.0 | 0.00 | 0.00 | 0.00 | 74 | 1017.9 |
| 20260502063022 | -1 | 24 | 0.0 | 0.0 | 0.00 | 0.00 | 0.00 | 73 | 1018.0 |
| 20260502062511 | -1 | 24 | 0.0 | 0.0 | 0.00 | 0.00 | 0.00 | 73 | 1018.0 |
| 20260502062009 | -1 | 24 | 0.0 | 0.0 | 0.00 | 0.00 | 0.00 | 73 | 1018.0 |
| 20260502061522 | -1 | 24 | 0.0 | 0.0 | 0.00 | 0.00 | 0.00 | 72 | 1018.0 |
| 20260502061007 | -1 | 24 | 0.0 | 0.0 | 0.00 | 0.00 | 0.00 | 72 | 1018.0 |
| 20260502060507 | -1 | 24 | 0.0 | 0.0 | 0.00 | 0.00 | 0.00 | 72 | 1018.0 |
| 20260502060024 | -1 | 24 | 0.0 | 0.0 | 0.00 | 0.00 | 0.00 | 72 | 1018.0 |
| 20260502055505 | -1 | 24 | 0.0 | 0.0 | 0.00 | 0.00 | 0.00 | 71 | 1018.0 |
| 20260502055008 | -1 | 24 | 0.0 | 0.0 | 0.00 | 0.00 | 0.00 | 70 | 1018.1 |
| 20260502054526 | 0 | 24 | 0.0 | 0.0 | 0.00 | 0.00 | 0.00 | 69 | 1018.1 |
| 20260502054006 | 0 | 24 | 0.0 | 0.0 | 0.00 | 0.00 | 0.00 | 68 | 1018.0 |
| 20260502053509 | 0 | 24 | 0.0 | 0.0 | 0.00 | 0.00 | 0.00 | 68 | 1018.1 |
| 20260502053022 | 0 | 24 | 0.0 | 0.0 | 0.00 | 0.00 | 0.00 | 68 | 1018.1 |
| 20260502052510 | 0 | 24 | 0.0 | 0.0 | 0.00 | 0.00 | 0.00 | 68 | 1017.9 |
| 20260502052011 | 0 | 24 | 0.0 | 0.0 | 0.00 | 0.00 | 0.00 | 67 | 1018.1 |
| 20260502051530 | 0 | 24 | 0.0 | 0.0 | 0.00 | 0.00 | 0.00 | 67 | 1018.1 |
| 20260502051006 | 0 | 24 | 0.0 | 0.0 | 0.00 | 0.00 | 0.00 | 67 | 1018.1 |
| 20260502050508 | 0 | 24 | 0.0 | 0.0 | 0.00 | 0.00 | 0.00 | 67 | 1018.1 |
| 20260502050026 | 0 | 24 | 0.0 | 0.0 | 0.00 | 0.00 | 0.00 | 66 | 1018.0 |
| 20260502045506 | 0 | 24 | 0.0 | 0.0 | 0.00 | 0.00 | 0.00 | 64 | 1018.1 |
| 20260502045013 | 0 | 24 | 0.0 | 0.0 | 0.00 | 0.00 | 0.00 | 65 | 1018.1 |
| 20260502044525 | 0 | 24 | 0.0 | 0.0 | 0.00 | 0.00 | 0.00 | 64 | 1018.1 |
| 20260502044011 | 0 | 24 | 0.0 | 0.0 | 0.00 | 0.00 | 0.00 | 64 | 1018.2 |
| 20260502043511 | 1 | 24 | 0.0 | 0.0 | 0.00 | 0.00 | 0.00 | 62 | 1018.1 |
| 20260502043026 | 1 | 24 | 0.0 | 0.0 | 0.00 | 0.00 | 0.00 | 61 | 1018.2 |
| 20260502042507 | 1 | 24 | 0.0 | 0.0 | 0.00 | 0.00 | 0.00 | 58 | 1018.2 |
| 20260502042011 | 1 | 24 | 0.0 | 3.2 | 0.00 | 0.00 | 0.00 | 58 | 1018.2 |
| 20260502041526 | 1 | 24 | 0.0 | 3.2 | 0.00 | 0.00 | 0.00 | 58 | 1018.3 |
| 20260502041009 | 1 | 24 | 0.0 | 3.2 | 0.00 | 0.00 | 0.00 | 57 | 1018.3 |
| 20260502040507 | 1 | 24 | 0.0 | 3.2 | 0.00 | 0.00 | 0.00 | 57 | 1018.3 |
| 20260502040026 | 1 | 24 | 0.0 | 3.2 | 0.00 | 0.00 | 0.00 | 56 | 1018.3 |
| 20260502035506 | 2 | 24 | 0.0 | 3.2 | 0.00 | 0.00 | 0.00 | 57 | 1018.4 |
| 20260502035010 | 2 | 24 | 0.0 | 0.0 | 0.00 | 0.00 | 0.00 | 57 | 1018.3 |
| 20260502034512 | 2 | 24 | 0.0 | 0.0 | 0.00 | 0.00 | 0.00 | 57 | 1018.4 |
| 20260502034003 | 2 | 24 | 0.0 | 1.6 | 0.00 | 0.00 | 0.00 | 56 | 1018.4 |
| 20260502033504 | 2 | 24 | 0.0 | 3.2 | 0.00 | 0.00 | 0.00 | 55 | 1018.3 |
| 20260502033013 | 2 | 24 | 1.6 | 4.8 | 0.00 | 0.00 | 0.00 | 54 | 1018.3 |
| 20260502032504 | 2 | 37 | 0.0 | 4.8 | 0.00 | 0.00 | 0.00 | 54 | 1018.2 |
| 20260502032004 | 2 | 56 | 1.6 | 4.8 | 0.00 | 0.00 | 0.00 | 54 | 1018.2 |
| 20260502031511 | 2 | 41 | 0.0 | 3.2 | 0.00 | 0.00 | 0.00 | 54 | 1018.2 |
| 20260502031004 | 3 | 58 | 0.0 | 3.2 | 0.00 | 0.00 | 0.00 | 54 | 1018.2 |
| 20260502030505 | 3 | 47 | 0.0 | 0.0 | 0.00 | 0.00 | 0.00 | 52 | 1018.3 |
| 20260502030002 | 3 | 47 | 0.0 | 0.0 | 0.00 | 0.00 | 0.00 | 51 | 1018.2 |
| 20260502025503 | 3 | 47 | 0.0 | 0.0 | 0.00 | 0.00 | 0.00 | 51 | 1018.3 |
| 20260502025003 | 3 | 47 | 0.0 | 3.2 | 0.00 | 0.00 | 0.00 | 49 | 1018.3 |
| 20260502024502 | 4 | 47 | 0.0 | 3.2 | 0.00 | 0.00 | 0.00 | 48 | 1018.2 |
| 20260502024003 | 4 | 47 | 0.0 | 3.2 | 0.00 | 0.00 | 0.00 | 47 | 1018.1 |
| 20260502023507 | 5 | 56 | 1.6 | 4.8 | 0.00 | 0.00 | 0.00 | 47 | 1018.1 |
| 20260502023004 | 5 | 40 | 1.6 | 4.8 | 0.00 | 0.00 | 0.00 | 47 | 1018.1 |
| 20260502022503 | 5 | 51 | 1.6 | 3.2 | 0.00 | 0.00 | 0.00 | 46 | 1018.0 |
| 20260502022010 | 5 | 56 | 1.6 | 3.2 | 0.00 | 0.00 | 0.00 | 44 | 1018.0 |
| 20260502021503 | 5 | 51 | 0.0 | 0.0 | 0.00 | 0.00 | 0.00 | 43 | 1018.0 |
| 20260502021004 | 6 | 51 | 0.0 | 0.0 | 0.00 | 0.00 | 0.00 | 42 | 1018.0 |
| 20260502020506 | 6 | 51 | 0.0 | 4.8 | 0.00 | 0.00 | 0.00 | 41 | 1017.9 |
| 20260502020003 | 6 | 51 | 0.0 | 4.8 | 0.00 | 0.00 | 0.00 | 40 | 1017.9 |
| 20260502015504 | 7 | 42 | 3.2 | 4.8 | 0.00 | 0.00 | 0.00 | 39 | 1017.9 |
| 20260502015006 | 7 | 56 | 1.6 | 6.4 | 0.00 | 0.00 | 0.00 | 38 | 1017.8 |
| 20260502014505 | 7 | 27 | 1.6 | 6.4 | 0.00 | 0.00 | 0.00 | 37 | 1017.8 |
| 20260502014003 | 7 | 49 | 1.6 | 6.4 | 0.00 | 0.00 | 0.00 | 35 | 1017.7 |
| 20260502013506 | 8 | 22 | 3.2 | 6.4 | 0.00 | 0.00 | 0.00 | 34 | 1017.8 |
| 20260502013004 | 8 | 25 | 1.6 | 6.4 | 0.00 | 0.00 | 0.00 | 34 | 1017.8 |
| 20260502012504 | 8 | 32 | 0.0 | 6.4 | 0.00 | 0.00 | 0.00 | 33 | 1017.7 |
| 20260502012005 | 8 | 26 | 3.2 | 8.0 | 0.00 | 0.00 | 0.00 | 33 | 1017.7 |
| 20260502011504 | 8 | 38 | 3.2 | 11.3 | 0.00 | 0.00 | 0.00 | 32 | 1017.5 |
| 20260502011003 | 8 | 38 | 4.8 | 11.3 | 0.00 | 0.00 | 0.00 | 32 | 1017.5 |
| 20260502010507 | 8 | 12 | 4.8 | 9.7 | 0.00 | 0.00 | 0.00 | 31 | 1017.5 |
| 20260502010003 | 8 | 351 | 4.8 | 9.7 | 0.00 | 0.00 | 0.00 | 32 | 1017.5 |
| 20260502005504 | 8 | 38 | 6.4 | 8.0 | 0.00 | 0.00 | 0.00 | 32 | 1017.5 |
| 20260502005006 | 9 | 52 | 3.2 | 9.7 | 0.00 | 0.00 | 0.00 | 31 | 1017.4 |
| 20260502004506 | 9 | 28 | 4.8 | 12.9 | 0.00 | 0.00 | 0.00 | 30 | 1017.3 |
| 20260502004003 | 9 | 28 | 4.8 | 12.9 | 0.00 | 0.00 | 0.00 | 30 | 1017.3 |
| 20260502003509 | 9 | 26 | 4.8 | 16.1 | 0.00 | 0.00 | 0.00 | 30 | 1017.5 |
| 20260502003004 | 10 | 22 | 8.0 | 16.1 | 0.00 | 0.00 | 0.00 | 30 | 1017.4 |
| 20260502002507 | 10 | 33 | 6.4 | 16.1 | 0.00 | 0.00 | 0.00 | 30 | 1017.4 |
| 20260502002009 | 10 | 39 | 6.4 | 16.1 | 0.00 | 0.00 | 0.00 | 29 | 1017.4 |
| 20260502001506 | 10 | 16 | 6.4 | 12.9 | 0.00 | 0.00 | 0.00 | 28 | 1017.3 |
| 20260502001003 | 10 | 59 | 8.0 | 12.9 | 0.00 | 0.00 | 0.00 | 29 | 1017.3 |
| 20260502000508 | 10 | 30 | 6.4 | 16.1 | 0.00 | 0.00 | 0.00 | 29 | 1017.3 |
| 20260502000007 | 10 | 16 | 6.4 | 16.1 | 0.00 | 0.00 | 0.00 | 28 | 1017.3 |
| 20260501235508 | 10 | 338 | 8.0 | 19.3 | 0.00 | 0.00 | 0.00 | 28 | 1017.3 |
| 20260501235009 | 10 | 40 | 8.0 | 19.3 | 0.00 | 0.00 | 0.00 | 28 | 1017.3 |
| 20260501234506 | 10 | 57 | 12.9 | 19.3 | 0.00 | 0.00 | 0.00 | 29 | 1017.2 |
| 20260501234006 | 10 | 56 | 9.7 | 19.3 | 0.00 | 0.00 | 0.00 | 28 | 1017.3 |
| 20260501233507 | 10 | 64 | 11.3 | 17.7 | 0.00 | 0.00 | 0.00 | 28 | 1017.2 |
| 20260501233004 | 10 | 11 | 8.0 | 16.1 | 0.00 | 0.00 | 0.00 | 28 | 1017.3 |
| 20260501232509 | 10 | 351 | 8.0 | 17.7 | 0.00 | 0.00 | 0.00 | 28 | 1017.3 |
| 20260501232009 | 11 | 36 | 11.3 | 17.7 | 0.00 | 0.00 | 0.00 | 27 | 1017.3 |
| 20260501231506 | 11 | 74 | 6.4 | 20.9 | 0.00 | 0.00 | 0.00 | 27 | 1017.3 |
| 20260501231007 | 11 | 330 | 9.7 | 20.9 | 0.00 | 0.00 | 0.00 | 28 | 1017.4 |
| 20260501230504 | 11 | 55 | 8.0 | 20.9 | 0.00 | 0.00 | 0.00 | 27 | 1017.4 |
| 20260501230006 | 11 | 24 | 4.8 | 20.9 | 0.00 | 0.00 | 0.00 | 27 | 1017.4 |
| 20260501225510 | 11 | 84 | 4.8 | 19.3 | 0.00 | 0.00 | 0.00 | 27 | 1017.4 |
| 20260501225005 | 11 | 41 | 8.0 | 17.7 | 0.00 | 0.00 | 0.00 | 27 | 1017.5 |